Time,TemperatureF,DewpointF,PressureIn,WindDirection,WindDirectionDegrees,WindSpeedMPH,WindSpeedGustMPH,Humidity,HourlyPrecipIn,Conditions,Clouds,dailyrainin,SolarRadiationWatts/m^2,SoftwareType,DateUTC
2013-02-12 00:02:00,34.4,26.6,29.73,South,191,8.0,14.0,73,0.00,RA,RA,0.00,0.0,WeatherDisplay:10.37,2013-02-12 05:02:00,
2013-02-12 00:07:00,34.4,26.6,29.73,SSW,209,7.0,20.0,73,0.00,RA,RA,0.00,0.0,WeatherDisplay:10.37,2013-02-12 05:07:00,
2013-02-12 00:12:00,34.4,26.6,29.73,SSW,208,7.0,17.0,73,0.00,OVC,OVC,0.00,0.0,WeatherDisplay:10.37,2013-02-12 05:12:00,
2013-02-12 00:17:00,34.3,26.5,29.74,South,189,10.0,16.0,73,0.00,OVC,OVC,0.00,0.0,WeatherDisplay:10.37,2013-02-12 05:17:00,
2013-02-12 00:22:00,34.4,26.6,29.74,SSW,196,9.0,17.0,73,0.00,OVC,OVC,0.00,0.0,WeatherDisplay:10.37,2013-02-12 05:22:00,
2013-02-12 00:27:00,34.4,26.6,29.74,SSW,204,10.0,18.0,73,0.00,OVC,OVC,0.00,0.0,WeatherDisplay:10.37,2013-02-12 05:27:00,
2013-02-12 00:32:00,34.6,26.5,29.75,SSW,193,8.0,15.0,72,0.00,OVC,OVC,0.00,0.0,WeatherDisplay:10.37,2013-02-12 05:32:00,
2013-02-12 00:40:00,34.6,26.8,29.75,SSW,193,7.0,15.0,73,0.00,OVC,OVC,0.00,0.0,WeatherDisplay:10.37,2013-02-12 05:40:00,
2013-02-12 00:45:00,34.6,26.5,29.75,South,188,9.0,20.0,72,0.00,OVC,OVC,0.00,0.0,WeatherDisplay:10.37,2013-02-12 05:45:00,
2013-02-12 00:50:00,34.7,26.6,29.76,SSW,193,7.0,16.0,72,0.00,OVC,OVC,0.00,0.0,WeatherDisplay:10.37,2013-02-12 05:50:00,
2013-02-12 00:55:00,34.7,26.6,29.76,SSW,196,7.0,17.0,72,0.00,OVC,OVC,0.00,0.0,WeatherDisplay:10.37,2013-02-12 05:55:00,
2013-02-12 01:00:00,34.7,26.5,29.76,SSW,194,7.0,17.0,72,0.00,OVC,OVC,0.00,0.0,WeatherDisplay:10.37,2013-02-12 06:00:00,
2013-02-12 01:10:00,34.6,26.2,29.76,SSW,206,7.0,20.0,71,0.00,OVC,OVC,0.00,0.0,WeatherDisplay:10.37,2013-02-12 06:10:00,
2013-02-12 01:15:00,34.6,26.2,29.76,SSW,209,6.0,18.0,71,0.00,OVC,OVC,0.00,0.0,WeatherDisplay:10.37,2013-02-12 06:15:00,
2013-02-12 01:20:00,34.6,26.5,29.76,SSW,203,6.0,14.0,72,0.00,OVC,OVC,0.00,0.0,WeatherDisplay:10.37,2013-02-12 06:20:00,
2013-02-12 01:25:00,34.4,26.3,29.76,SSW,202,7.0,15.0,72,0.00,OVC,OVC,0.00,0.0,WeatherDisplay:10.37,2013-02-12 06:25:00,
2013-02-12 01:30:00,34.4,26.3,29.76,SW,215,7.0,18.0,72,0.00,OVC,OVC,0.00,0.0,WeatherDisplay:10.37,2013-02-12 06:30:00,
2013-02-12 01:32:00,34.4,26.3,29.76,SSW,208,7.0,13.0,72,0.00,OVC,OVC,0.00,0.0,WeatherDisplay:10.37,2013-02-12 06:32:00,
2013-02-12 01:42:00,34.4,26.3,29.76,SSW,212,8.0,23.0,72,0.00,OVC,OVC,0.00,0.0,WeatherDisplay:10.37,2013-02-12 06:42:00,
2013-02-12 01:47:00,34.3,26.2,29.76,SSW,207,6.0,22.0,72,0.00,OVC,OVC,0.00,0.0,WeatherDisplay:10.37,2013-02-12 06:47:00,
2013-02-12 01:57:00,34.3,25.9,29.76,SSW,209,9.0,20.0,71,0.00,OVC,OVC,0.00,0.0,WeatherDisplay:10.37,2013-02-12 06:57:00,
2013-02-12 02:02:00,34.3,25.9,29.78,SSW,211,10.0,17.0,71,0.00,OVC,OVC,0.00,0.0,WeatherDisplay:10.37,2013-02-12 07:02:00,
2013-02-12 02:07:00,34.3,26.2,29.78,SSW,209,7.0,18.0,72,0.00,OVC,OVC,0.00,0.0,WeatherDisplay:10.37,2013-02-12 07:07:00,
2013-02-12 02:12:00,34.1,26.0,29.78,SSW,194,9.0,20.0,72,0.00,OVC,OVC,0.00,0.0,WeatherDisplay:10.37,2013-02-12 07:12:00,
2013-02-12 02:17:00,34.1,26.0,29.77,SSW,193,10.0,20.0,72,0.00,OVC,OVC,0.00,0.0,WeatherDisplay:10.37,2013-02-12 07:17:00,
2013-02-12 02:22:00,34.1,26.0,29.77,SSW,199,6.0,29.0,72,0.00,OVC,OVC,0.00,0.0,WeatherDisplay:10.37,2013-02-12 07:22:00,
2013-02-12 02:27:00,34.1,26.0,29.77,SSW,194,8.0,20.0,72,0.00,OVC,OVC,0.00,0.0,WeatherDisplay:10.37,2013-02-12 07:27:00,
2013-02-12 02:32:00,34.1,26.3,29.78,SSW,196,8.0,22.0,73,0.00,OVC,OVC,0.00,0.0,WeatherDisplay:10.37,2013-02-12 07:32:00,
2013-02-12 02:37:00,34.1,26.3,29.78,South,191,9.0,16.0,73,0.00,OVC,OVC,0.00,0.0,WeatherDisplay:10.37,2013-02-12 07:37:00,
2013-02-12 02:42:00,34.0,26.3,29.78,SSW,198,9.0,15.0,73,0.00,OVC,OVC,0.00,0.0,WeatherDisplay:10.37,2013-02-12 07:42:00,
2013-02-12 02:47:00,34.0,26.3,29.79,SSW,205,9.0,20.0,73,0.00,OVC,OVC,0.00,0.0,WeatherDisplay:10.37,2013-02-12 07:47:00,
2013-02-12 02:52:00,34.0,26.3,29.79,SSW,192,7.0,20.0,73,0.00,OVC,OVC,0.00,0.0,WeatherDisplay:10.37,2013-02-12 07:52:00,
2013-02-12 02:57:00,34.0,26.3,29.79,SSW,199,6.0,18.0,73,0.00,OVC,OVC,0.00,0.0,WeatherDisplay:10.37,2013-02-12 07:57:00,
2013-02-12 03:02:00,34.0,26.3,29.79,SSW,199,8.0,17.0,73,0.00,OVC,OVC,0.00,0.0,WeatherDisplay:10.37,2013-02-12 08:02:00,
2013-02-12 03:07:00,34.0,26.3,29.79,SSW,204,8.0,17.0,73,0.00,OVC,OVC,0.00,0.0,WeatherDisplay:10.37,2013-02-12 08:07:00,
2013-02-12 03:12:00,34.0,26.3,29.79,SSW,204,5.0,16.0,73,0.00,OVC,OVC,0.00,0.0,WeatherDisplay:10.37,2013-02-12 08:12:00,
2013-02-12 03:17:00,34.0,26.3,29.80,SSW,206,9.0,20.0,73,0.00,OVC,OVC,0.00,0.0,WeatherDisplay:10.37,2013-02-12 08:17:00,
2013-02-12 03:22:00,34.0,26.3,29.80,SSW,194,8.0,15.0,73,0.00,OVC,OVC,0.00,0.0,WeatherDisplay:10.37,2013-02-12 08:22:00,
2013-02-12 03:27:00,34.0,26.3,29.80,South,191,7.0,21.0,73,0.00,OVC,OVC,0.00,0.0,WeatherDisplay:10.37,2013-02-12 08:27:00,
2013-02-12 03:32:00,34.0,26.3,29.81,SW,216,8.0,20.0,73,0.00,OVC,OVC,0.00,0.0,WeatherDisplay:10.37,2013-02-12 08:32:00,
2013-02-12 03:42:00,33.8,26.1,29.81,SSW,205,8.0,16.0,73,0.00,OVC,OVC,0.00,0.0,WeatherDisplay:10.37,2013-02-12 08:42:00,
2013-02-12 03:47:00,33.8,26.4,29.81,SSW,207,12.0,18.0,74,0.00,OVC,OVC,0.00,0.0,WeatherDisplay:10.37,2013-02-12 08:47:00,
2013-02-12 03:52:00,33.8,26.4,29.81,SW,219,8.0,16.0,74,0.00,OVC,OVC,0.00,0.0,WeatherDisplay:10.37,2013-02-12 08:52:00,
2013-02-12 03:57:00,33.7,26.3,29.81,SW,214,6.0,17.0,74,0.00,OVC,OVC,0.00,0.0,WeatherDisplay:10.37,2013-02-12 08:57:00,
2013-02-12 04:02:00,33.7,26.6,29.82,SW,214,7.0,15.0,75,0.00,OVC,OVC,0.00,0.0,WeatherDisplay:10.37,2013-02-12 09:02:00,
2013-02-12 04:07:00,33.7,26.6,29.82,SSW,203,8.0,17.0,75,0.00,OVC,OVC,0.00,0.0,WeatherDisplay:10.37,2013-02-12 09:07:00,
2013-02-12 04:12:00,33.7,26.6,29.82,South,188,9.0,18.0,75,0.00,OVC,OVC,0.00,0.0,WeatherDisplay:10.37,2013-02-12 09:12:00,
2013-02-12 04:17:00,33.7,26.3,29.83,South,191,7.0,17.0,74,0.00,OVC,OVC,0.00,0.0,WeatherDisplay:10.37,2013-02-12 09:17:00,
2013-02-12 04:22:00,33.7,26.3,29.83,SW,216,8.0,16.0,74,0.00,OVC,OVC,0.00,0.0,WeatherDisplay:10.37,2013-02-12 09:22:00,
2013-02-12 04:32:00,33.7,26.3,29.83,SSW,208,8.0,22.0,74,0.00,OVC,OVC,0.00,0.0,WeatherDisplay:10.37,2013-02-12 09:32:00,
2013-02-12 04:42:00,33.5,26.1,29.83,SW,215,7.0,16.0,74,0.00,OVC,OVC,0.00,0.0,WeatherDisplay:10.37,2013-02-12 09:42:00,
2013-02-12 04:52:00,33.4,26.6,29.84,SW,215,7.0,14.0,76,0.00,OVC,OVC,0.00,0.0,WeatherDisplay:10.37,2013-02-12 09:52:00,
2013-02-12 04:57:00,33.3,26.6,29.84,SW,217,7.0,17.0,76,0.00,OVC,OVC,0.00,0.0,WeatherDisplay:10.37,2013-02-12 09:57:00,
2013-02-12 05:02:00,33.2,26.5,29.84,SW,214,7.0,15.0,76,0.00,OVC,OVC,0.00,0.0,WeatherDisplay:10.37,2013-02-12 10:02:00,
2013-02-12 05:07:00,33.2,26.8,29.84,SSW,212,8.0,17.0,77,0.00,OVC,OVC,0.00,0.0,WeatherDisplay:10.37,2013-02-12 10:07:00,
2013-02-12 05:12:00,33.2,26.8,29.84,SSW,207,7.0,17.0,77,0.00,OVC,OVC,0.00,0.0,WeatherDisplay:10.37,2013-02-12 10:12:00,
2013-02-12 05:17:00,33.2,26.8,29.85,SSW,209,6.0,18.0,77,0.00,OVC,OVC,0.00,0.0,WeatherDisplay:10.37,2013-02-12 10:17:00,
2013-02-12 05:22:00,33.1,26.7,29.85,SSW,208,8.0,18.0,77,0.00,OVC,OVC,0.00,0.0,WeatherDisplay:10.37,2013-02-12 10:22:00,
2013-02-12 05:27:00,33.2,26.7,29.85,SSW,204,7.0,20.0,77,0.00,OVC,OVC,0.00,0.0,WeatherDisplay:10.37,2013-02-12 10:27:00,
2013-02-12 05:32:00,33.1,26.4,29.85,SSW,205,6.0,17.0,76,0.00,OVC,OVC,0.00,0.0,WeatherDisplay:10.37,2013-02-12 10:32:00,
2013-02-12 05:37:00,33.1,26.4,29.85,SW,214,7.0,16.0,76,0.00,OVC,OVC,0.00,0.0,WeatherDisplay:10.37,2013-02-12 10:37:00,
2013-02-12 05:42:00,33.1,26.4,29.85,SW,218,8.0,14.0,76,0.00,OVC,OVC,0.00,0.0,WeatherDisplay:10.37,2013-02-12 10:42:00,
2013-02-12 05:47:00,33.2,26.5,29.86,SSW,204,5.0,13.0,76,0.00,OVC,OVC,0.00,0.0,WeatherDisplay:10.37,2013-02-12 10:47:00,
2013-02-12 05:52:00,33.2,26.1,29.86,SSW,199,7.0,13.0,75,0.00,OVC,OVC,0.00,0.0,WeatherDisplay:10.37,2013-02-12 10:52:00,
2013-02-12 05:57:00,33.2,26.1,29.86,SSW,210,6.0,16.0,75,0.00,OVC,OVC,0.00,0.0,WeatherDisplay:10.37,2013-02-12 10:57:00,
2013-02-12 06:02:00,33.2,26.1,29.86,SSW,210,6.0,17.0,75,0.00,OVC,OVC,0.00,0.0,WeatherDisplay:10.37,2013-02-12 11:02:00,
2013-02-12 06:07:00,33.2,26.1,29.86,SSW,210,6.0,12.0,75,0.00,OVC,OVC,0.00,0.0,WeatherDisplay:10.37,2013-02-12 11:07:00,
2013-02-12 06:12:00,33.2,25.8,29.86,SSW,213,6.0,22.0,74,0.00,OVC,OVC,0.00,0.0,WeatherDisplay:10.37,2013-02-12 11:12:00,
2013-02-12 06:22:00,33.2,25.8,29.87,SSW,210,8.0,16.0,74,0.00,OVC,OVC,0.00,0.0,WeatherDisplay:10.37,2013-02-12 11:22:00,
2013-02-12 06:27:00,33.2,25.8,29.87,SSW,206,9.0,17.0,74,0.00,OVC,OVC,0.00,0.0,WeatherDisplay:10.37,2013-02-12 11:27:00,
2013-02-12 06:32:00,33.2,25.8,29.87,SSW,206,6.0,20.0,74,0.00,OVC,OVC,0.00,0.0,WeatherDisplay:10.37,2013-02-12 11:32:00,
2013-02-12 06:40:00,33.1,25.7,29.87,SSW,203,8.0,17.0,74,0.00,OVC,OVC,0.00,0.0,WeatherDisplay:10.37,2013-02-12 11:40:00,
2013-02-12 06:45:00,33.1,25.7,29.87,SSW,208,9.0,17.0,74,0.00,OVC,OVC,0.00,0.0,WeatherDisplay:10.37,2013-02-12 11:45:00,
2013-02-12 06:50:00,33.1,25.7,29.88,SSW,208,7.0,16.0,74,0.00,OVC,OVC,0.00,0.0,WeatherDisplay:10.37,2013-02-12 11:50:00,
2013-02-12 06:55:00,33.1,25.4,29.88,SSW,205,7.0,13.0,73,0.00,OVC,OVC,0.00,0.0,WeatherDisplay:10.37,2013-02-12 11:55:00,
2013-02-12 07:00:00,33.1,25.4,29.88,SSW,208,7.0,17.0,73,0.00,OVC,OVC,0.00,0.0,WeatherDisplay:10.37,2013-02-12 12:00:00,
2013-02-12 07:10:00,32.9,25.2,29.89,SSW,205,5.0,17.0,73,0.00,OVC,OVC,0.00,0.0,WeatherDisplay:10.37,2013-02-12 12:10:00,
2013-02-12 07:20:00,32.9,25.2,29.90,SSW,203,10.0,20.0,73,0.00,OVC,OVC,0.00,0.0,WeatherDisplay:10.37,2013-02-12 12:20:00,
2013-02-12 07:25:00,32.9,25.2,29.90,SSW,209,7.0,22.0,73,0.00,OVC,OVC,0.00,0.0,WeatherDisplay:10.37,2013-02-12 12:25:00,
2013-02-12 07:30:00,32.9,24.9,29.90,SSW,210,7.0,13.0,72,0.00,OVC,OVC,0.00,0.0,WeatherDisplay:10.37,2013-02-12 12:30:00,
2013-02-12 07:37:00,32.9,24.9,29.90,SW,215,5.0,15.0,72,0.00,OVC,OVC,0.00,7.0,WeatherDisplay:10.37,2013-02-12 12:37:00,
2013-02-12 07:42:00,32.9,24.9,29.90,SSW,213,6.0,14.0,72,0.00,OVC,OVC,0.00,9.0,WeatherDisplay:10.37,2013-02-12 12:42:00,
2013-02-12 07:47:00,32.9,24.9,29.91,SSW,209,5.0,17.0,72,0.00,OVC,OVC,0.00,12.0,WeatherDisplay:10.37,2013-02-12 12:47:00,
2013-02-12 07:52:00,32.9,24.5,29.91,SSW,198,8.0,14.0,71,0.00,OVC,OVC,0.00,18.0,WeatherDisplay:10.37,2013-02-12 12:52:00,
2013-02-12 07:57:00,32.9,24.5,29.91,SSW,208,7.0,14.0,71,0.00,OVC,OVC,0.00,23.0,WeatherDisplay:10.37,2013-02-12 12:57:00,
2013-02-12 08:02:00,32.9,24.5,29.92,SW,220,8.0,17.0,71,0.00,OVC,OVC,0.00,35.0,WeatherDisplay:10.37,2013-02-12 13:02:00,
2013-02-12 08:07:00,32.9,24.5,29.92,SSW,211,8.0,16.0,71,0.00,OVC,OVC,0.00,44.0,WeatherDisplay:10.37,2013-02-12 13:07:00,
2013-02-12 08:12:00,32.9,24.5,29.92,SSW,211,6.0,15.0,71,0.00,OVC,OVC,0.00,49.0,WeatherDisplay:10.37,2013-02-12 13:12:00,
2013-02-12 08:17:00,32.9,24.5,29.92,SW,214,7.0,12.0,71,0.00,OVC,OVC,0.00,60.0,WeatherDisplay:10.37,2013-02-12 13:17:00,
2013-02-12 08:22:00,33.1,24.4,29.92,SW,221,6.0,15.0,70,0.00,OVC,OVC,0.00,70.0,WeatherDisplay:10.37,2013-02-12 13:22:00,
2013-02-12 08:27:00,33.1,24.4,29.92,SW,226,8.0,16.0,70,0.00,OVC,OVC,0.00,69.0,WeatherDisplay:10.37,2013-02-12 13:27:00,
2013-02-12 08:32:00,33.1,24.4,29.93,SSW,213,8.0,17.0,70,0.00,OVC,OVC,0.00,70.0,WeatherDisplay:10.37,2013-02-12 13:32:00,
2013-02-12 08:42:00,33.1,24.4,29.93,SSW,205,9.0,16.0,70,0.00,OVC,OVC,0.00,79.0,WeatherDisplay:10.37,2013-02-12 13:42:00,
2013-02-12 08:52:00,33.2,24.1,29.93,SW,220,7.0,18.0,69,0.00,OVC,OVC,0.00,91.0,WeatherDisplay:10.37,2013-02-12 13:52:00,
2013-02-12 08:57:00,33.2,24.5,29.93,SW,220,7.0,12.0,70,0.00,OVC,OVC,0.00,98.0,WeatherDisplay:10.37,2013-02-12 13:57:00,
2013-02-12 09:02:00,33.2,24.5,29.93,SSW,208,8.0,17.0,70,0.00,OVC,OVC,0.00,90.0,WeatherDisplay:10.37,2013-02-12 14:02:00,
2013-02-12 09:07:00,33.2,24.1,29.93,SW,215,8.0,18.0,69,0.00,OVC,OVC,0.00,97.0,WeatherDisplay:10.37,2013-02-12 14:07:00,
2013-02-12 09:12:00,33.2,24.1,29.93,SW,217,7.0,14.0,69,0.00,OVC,OVC,0.00,90.0,WeatherDisplay:10.37,2013-02-12 14:12:00,
2013-02-12 09:17:00,33.2,24.1,29.94,SW,219,3.0,12.0,69,0.00,OVC,OVC,0.00,83.0,WeatherDisplay:10.37,2013-02-12 14:17:00,
2013-02-12 09:22:00,33.2,24.1,29.94,SW,216,7.0,16.0,69,0.00,OVC,OVC,0.00,88.0,WeatherDisplay:10.37,2013-02-12 14:22:00,
2013-02-12 09:32:00,33.1,23.7,29.95,SW,214,8.0,16.0,68,0.00,OVC,OVC,0.00,81.0,WeatherDisplay:10.37,2013-02-12 14:32:00,
2013-02-12 09:37:00,33.1,23.7,29.95,SW,218,7.0,22.0,68,0.00,OVC,OVC,0.00,79.0,WeatherDisplay:10.37,2013-02-12 14:37:00,
2013-02-12 09:42:00,33.1,23.7,29.95,SW,222,10.0,15.0,68,0.00,OVC,OVC,0.00,81.0,WeatherDisplay:10.37,2013-02-12 14:42:00,
2013-02-12 09:47:00,33.1,24.0,29.95,SW,219,3.0,10.0,69,0.00,OVC,OVC,0.00,84.0,WeatherDisplay:10.37,2013-02-12 14:47:00,
2013-02-12 09:52:00,33.2,24.1,29.95,SW,217,6.0,10.0,69,0.00,OVC,OVC,0.00,93.0,WeatherDisplay:10.37,2013-02-12 14:52:00,
2013-02-12 09:57:00,33.2,24.5,29.95,SW,219,6.0,12.0,70,0.00,OVC,OVC,0.00,107.0,WeatherDisplay:10.37,2013-02-12 14:57:00,
2013-02-12 10:07:00,33.2,24.8,29.95,SSW,207,6.0,12.0,71,0.00,OVC,OVC,0.00,151.0,WeatherDisplay:10.37,2013-02-12 15:07:00,
2013-02-12 10:12:00,33.4,24.3,29.95,SSW,201,6.0,12.0,69,0.00,OVC,OVC,0.00,171.0,WeatherDisplay:10.37,2013-02-12 15:12:00,
2013-02-12 10:17:00,33.5,24.4,29.95,SSW,209,8.0,17.0,69,0.00,OVC,OVC,0.00,172.0,WeatherDisplay:10.37,2013-02-12 15:17:00,
2013-02-12 10:22:00,33.5,24.4,29.95,SW,219,3.0,17.0,69,0.00,OVC,OVC,0.00,178.0,WeatherDisplay:10.37,2013-02-12 15:22:00,
2013-02-12 10:27:00,33.7,24.6,29.95,SW,215,5.0,14.0,69,0.00,OVC,OVC,0.00,185.0,WeatherDisplay:10.37,2013-02-12 15:27:00,
2013-02-12 10:32:00,33.7,24.3,29.95,SSW,212,7.0,20.0,68,0.00,OVC,OVC,0.00,193.0,WeatherDisplay:10.37,2013-02-12 15:32:00,
2013-02-12 10:42:00,33.7,24.3,29.95,SW,215,13.0,21.0,68,0.00,OVC,OVC,0.00,346.0,WeatherDisplay:10.37,2013-02-12 15:42:00,
2013-02-12 10:47:00,33.9,24.8,29.95,SW,216,7.0,15.0,69,0.00,OVC,OVC,0.00,394.0,WeatherDisplay:10.37,2013-02-12 15:47:00,
2013-02-12 10:52:00,34.3,24.8,29.95,SSW,213,8.0,16.0,68,0.00,OVC,OVC,0.00,360.0,WeatherDisplay:10.37,2013-02-12 15:52:00,
2013-02-12 10:57:00,34.4,24.9,29.95,SW,216,6.0,18.0,68,0.00,OVC,OVC,0.00,274.0,WeatherDisplay:10.37,2013-02-12 15:57:00,
2013-02-12 11:02:00,34.3,24.5,29.95,SW,225,7.0,17.0,67,0.00,OVC,OVC,0.00,243.0,WeatherDisplay:10.37,2013-02-12 16:02:00,
2013-02-12 11:07:00,34.1,24.3,29.95,SW,227,9.0,14.0,67,0.00,BKN,BKN,0.00,246.0,WeatherDisplay:10.37,2013-02-12 16:07:00,
2013-02-12 11:12:00,34.1,24.3,29.95,SW,224,9.0,16.0,67,0.00,BKN,BKN,0.00,323.0,WeatherDisplay:10.37,2013-02-12 16:12:00,
2013-02-12 11:17:00,34.1,23.9,29.96,SW,219,12.0,20.0,66,0.00,BKN,BKN,0.00,183.0,WeatherDisplay:10.37,2013-02-12 16:17:00,
2013-02-12 11:22:00,34.1,23.9,29.96,SW,221,9.0,17.0,66,0.00,OVC,OVC,0.00,396.0,WeatherDisplay:10.37,2013-02-12 16:22:00,
2013-02-12 11:32:00,34.4,24.2,29.97,SSW,212,5.0,14.0,66,0.00,OVC,OVC,0.00,102.0,WeatherDisplay:10.37,2013-02-12 16:32:00,
2013-02-12 11:42:00,33.9,24.4,29.97,SSW,206,6.0,17.0,68,0.00,OVC,OVC,0.00,60.0,WeatherDisplay:10.37,2013-02-12 16:42:00,
2013-02-12 11:47:00,33.5,24.4,29.97,SSW,206,5.0,10.0,69,0.00,OVC,OVC,0.00,58.0,WeatherDisplay:10.37,2013-02-12 16:47:00,
2013-02-12 11:52:00,33.3,24.2,29.97,SW,219,5.0,10.0,69,0.00,OVC,OVC,0.00,70.0,WeatherDisplay:10.37,2013-02-12 16:52:00,
2013-02-12 11:57:00,33.0,23.2,29.97,SW,226,10.0,18.0,67,0.00,OVC,OVC,0.00,79.0,WeatherDisplay:10.37,2013-02-12 16:57:00,
2013-02-12 12:02:00,32.9,23.5,29.97,SW,227,7.0,14.0,68,0.00,OVC,OVC,0.00,72.0,WeatherDisplay:10.37,2013-02-12 17:02:00,
2013-02-12 12:07:00,32.9,23.5,29.97,SW,221,8.0,15.0,68,0.00,OVC,OVC,0.00,49.0,WeatherDisplay:10.37,2013-02-12 17:07:00,
2013-02-12 12:12:00,32.8,23.4,29.97,SW,218,6.0,13.0,68,0.00,OVC,OVC,0.00,49.0,WeatherDisplay:10.37,2013-02-12 17:12:00,
2013-02-12 12:17:00,32.6,23.2,29.97,SSW,213,9.0,18.0,68,0.00,OVC,OVC,0.00,74.0,WeatherDisplay:10.37,2013-02-12 17:17:00,
2013-02-12 12:22:00,32.6,23.2,29.97,SW,223,7.0,13.0,68,0.00,OVC,OVC,0.00,109.0,WeatherDisplay:10.37,2013-02-12 17:22:00,
2013-02-12 12:27:00,32.6,23.2,29.97,SW,216,6.0,14.0,68,0.00,OVC,OVC,0.00,109.0,WeatherDisplay:10.37,2013-02-12 17:27:00,
2013-02-12 12:32:00,32.8,23.0,29.96,SSW,211,8.0,15.0,67,0.00,OVC,OVC,0.00,90.0,WeatherDisplay:10.37,2013-02-12 17:32:00,
2013-02-12 12:40:00,32.8,23.4,29.96,SW,226,7.0,14.0,68,0.00,OVC,OVC,0.00,74.0,WeatherDisplay:10.37,2013-02-12 17:40:00,
2013-02-12 12:45:00,32.6,23.2,29.96,SW,225,6.0,12.0,68,0.00,OVC,OVC,0.00,91.0,WeatherDisplay:10.37,2013-02-12 17:45:00,
2013-02-12 12:50:00,32.7,22.9,29.96,SW,220,9.0,15.0,67,0.00,OVC,OVC,0.00,90.0,WeatherDisplay:10.37,2013-02-12 17:50:00,
2013-02-12 12:55:00,32.6,22.8,29.96,SW,226,7.0,16.0,67,0.00,OVC,OVC,0.00,74.0,WeatherDisplay:10.37,2013-02-12 17:55:00,
2013-02-12 13:00:00,32.6,22.8,29.96,SW,226,6.0,12.0,67,0.00,OVC,OVC,0.00,67.0,WeatherDisplay:10.37,2013-02-12 18:00:00,
2013-02-12 13:05:00,32.6,22.8,29.95,SW,231,8.0,16.0,67,0.00,OVC,OVC,0.00,60.0,WeatherDisplay:10.37,2013-02-12 18:05:00,
2013-02-12 13:10:00,32.5,22.8,29.95,SW,223,5.0,15.0,67,0.00,OVC,OVC,0.00,69.0,WeatherDisplay:10.37,2013-02-12 18:10:00,
2013-02-12 13:15:00,32.5,22.8,29.95,SW,220,8.0,12.0,67,0.00,OVC,OVC,0.00,72.0,WeatherDisplay:10.37,2013-02-12 18:15:00,
2013-02-12 13:20:00,32.4,22.7,29.95,SW,216,7.0,15.0,67,0.00,OVC,OVC,0.00,84.0,WeatherDisplay:10.37,2013-02-12 18:20:00,
2013-02-12 13:25:00,32.5,23.1,29.95,SW,226,6.0,10.0,68,0.00,OVC,OVC,0.00,111.0,WeatherDisplay:10.37,2013-02-12 18:25:00,
2013-02-12 13:30:00,32.6,22.5,29.95,SW,229,7.0,12.0,66,0.00,OVC,OVC,0.00,137.0,WeatherDisplay:10.37,2013-02-12 18:30:00,
2013-02-12 13:37:00,32.9,23.5,29.95,SW,226,7.0,12.0,68,0.00,OVC,OVC,0.00,120.0,WeatherDisplay:10.37,2013-02-12 18:37:00,
2013-02-12 13:42:00,32.9,23.1,29.95,SW,223,6.0,14.0,67,0.00,OVC,OVC,0.00,72.0,WeatherDisplay:10.37,2013-02-12 18:42:00,
2013-02-12 13:47:00,32.8,23.0,29.95,SW,227,7.0,14.0,67,0.00,OVC,OVC,0.00,63.0,WeatherDisplay:10.37,2013-02-12 18:47:00,
2013-02-12 13:57:00,32.6,23.2,29.95,SW,230,6.0,12.0,68,0.00,OVC,OVC,0.00,88.0,WeatherDisplay:10.37,2013-02-12 18:57:00,
2013-02-12 14:02:00,32.8,23.0,29.95,SW,227,6.0,13.0,67,0.00,OVC,OVC,0.00,118.0,WeatherDisplay:10.37,2013-02-12 19:02:00,
2013-02-12 14:07:00,32.9,22.8,29.95,SW,225,6.0,13.0,66,0.00,OVC,OVC,0.00,130.0,WeatherDisplay:10.37,2013-02-12 19:07:00,
2013-02-12 14:12:00,33.1,22.9,29.95,SW,228,3.0,9.0,66,0.00,OVC,OVC,0.00,135.0,WeatherDisplay:10.37,2013-02-12 19:12:00,
2013-02-12 14:22:00,33.2,22.3,29.95,SW,228,7.0,12.0,64,0.00,OVC,OVC,0.00,109.0,WeatherDisplay:10.37,2013-02-12 19:22:00,
2013-02-12 14:27:00,33.2,22.3,29.95,SW,231,5.0,9.0,64,0.00,OVC,OVC,0.00,86.0,WeatherDisplay:10.37,2013-02-12 19:27:00,
2013-02-12 14:32:00,33.1,21.9,29.95,SW,221,7.0,12.0,63,0.00,OVC,OVC,0.00,72.0,WeatherDisplay:10.37,2013-02-12 19:32:00,
2013-02-12 14:42:00,32.9,21.7,29.95,SW,224,7.0,14.0,63,0.00,OVC,OVC,0.00,51.0,WeatherDisplay:10.37,2013-02-12 19:42:00,
2013-02-12 14:47:00,32.8,21.6,29.95,SW,226,8.0,15.0,63,0.00,OVC,OVC,0.00,49.0,WeatherDisplay:10.37,2013-02-12 19:47:00,
2013-02-12 14:52:00,32.6,21.4,29.95,SW,225,5.0,12.0,63,0.00,OVC,OVC,0.00,46.0,WeatherDisplay:10.37,2013-02-12 19:52:00,
2013-02-12 14:57:00,32.6,21.8,29.95,SW,222,3.0,13.0,64,0.00,OVC,OVC,0.00,39.0,WeatherDisplay:10.37,2013-02-12 19:57:00,
2013-02-12 15:02:00,32.6,21.8,29.94,SW,227,6.0,14.0,64,0.00,OVC,OVC,0.00,37.0,WeatherDisplay:10.37,2013-02-12 20:02:00,
2013-02-12 15:07:00,32.5,21.7,29.94,SW,228,8.0,14.0,64,0.00,OVC,OVC,0.00,46.0,WeatherDisplay:10.37,2013-02-12 20:07:00,
2013-02-12 15:12:00,32.4,22.0,29.94,SW,222,7.0,12.0,65,0.00,OVC,OVC,0.00,47.0,WeatherDisplay:10.37,2013-02-12 20:12:00,
2013-02-12 15:22:00,32.3,22.2,29.93,SW,224,5.0,12.0,66,0.00,OVC,OVC,0.00,44.0,WeatherDisplay:10.37,2013-02-12 20:22:00,
2013-02-12 15:27:00,32.2,22.1,29.93,SW,231,8.0,13.0,66,0.00,OVC,OVC,0.00,37.0,WeatherDisplay:10.37,2013-02-12 20:27:00,
2013-02-12 15:32:00,32.1,22.0,29.92,SW,231,6.0,13.0,66,0.00,OVC,OVC,0.00,40.0,WeatherDisplay:10.37,2013-02-12 20:32:00,
2013-02-12 15:42:00,32.0,21.9,29.92,SW,230,7.0,12.0,66,0.00,OVC,OVC,0.00,51.0,WeatherDisplay:10.37,2013-02-12 20:42:00,
2013-02-12 15:47:00,32.0,21.9,29.92,SW,234,3.0,12.0,66,0.00,OVC,OVC,0.00,58.0,WeatherDisplay:10.37,2013-02-12 20:47:00,
2013-02-12 15:57:00,32.3,21.8,29.92,SW,219,5.0,8.0,65,0.00,OVC,OVC,0.00,142.0,WeatherDisplay:10.37,2013-02-12 20:57:00,
2013-02-12 16:02:00,32.5,22.0,29.93,SW,225,3.0,12.0,65,0.00,OVC,OVC,0.00,105.0,WeatherDisplay:10.37,2013-02-12 21:02:00,
2013-02-12 16:07:00,32.6,21.8,29.93,SW,225,3.0,13.0,64,0.00,OVC,OVC,0.00,102.0,WeatherDisplay:10.37,2013-02-12 21:07:00,
2013-02-12 16:12:00,32.6,21.8,29.93,SW,220,5.0,8.0,64,0.00,OVC,OVC,0.00,88.0,WeatherDisplay:10.37,2013-02-12 21:12:00,
2013-02-12 16:17:00,32.8,21.6,29.93,SSW,213,2.0,8.0,63,0.00,OVC,OVC,0.00,90.0,WeatherDisplay:10.37,2013-02-12 21:17:00,
2013-02-12 16:22:00,32.8,21.6,29.93,SSW,212,5.0,12.0,63,0.00,OVC,OVC,0.00,62.0,WeatherDisplay:10.37,2013-02-12 21:22:00,
2013-02-12 16:27:00,32.8,21.6,29.93,SW,224,3.0,10.0,63,0.00,OVC,OVC,0.00,44.0,WeatherDisplay:10.37,2013-02-12 21:27:00,
2013-02-12 16:37:00,32.6,21.8,29.93,SSW,213,3.0,7.0,64,0.00,OVC,OVC,0.00,23.0,WeatherDisplay:10.37,2013-02-12 21:37:00,
2013-02-12 16:42:00,32.6,21.8,29.93,SW,224,3.0,8.0,64,0.00,OVC,OVC,0.00,21.0,WeatherDisplay:10.37,2013-02-12 21:42:00,
2013-02-12 16:47:00,32.5,21.7,29.93,SW,232,5.0,13.0,64,0.00,OVC,OVC,0.00,14.0,WeatherDisplay:10.37,2013-02-12 21:47:00,
2013-02-12 16:52:00,32.3,21.8,29.93,SW,218,1.0,10.0,65,0.00,OVC,OVC,0.00,18.0,WeatherDisplay:10.37,2013-02-12 21:52:00,
2013-02-12 16:57:00,32.3,21.8,29.93,SW,214,5.0,10.0,65,0.00,OVC,OVC,0.00,18.0,WeatherDisplay:10.37,2013-02-12 21:57:00,
2013-02-12 17:02:00,32.3,21.8,29.94,SW,221,5.0,13.0,65,0.00,OVC,OVC,0.00,18.0,WeatherDisplay:10.37,2013-02-12 22:02:00,
2013-02-12 17:12:00,32.2,21.7,29.94,SSW,213,3.0,8.0,65,0.00,OVC,OVC,0.00,12.0,WeatherDisplay:10.37,2013-02-12 22:12:00,
2013-02-12 17:17:00,32.2,22.1,29.95,SW,217,2.0,7.0,66,0.00,OVC,OVC,0.00,7.0,WeatherDisplay:10.37,2013-02-12 22:17:00,
2013-02-12 17:22:00,32.2,22.1,29.95,SW,222,2.0,7.0,66,0.00,OVC,OVC,0.00,5.0,WeatherDisplay:10.37,2013-02-12 22:22:00,
2013-02-12 17:27:00,32.2,22.1,29.95,SW,225,3.0,7.0,66,0.00,OVC,OVC,0.00,0.0,WeatherDisplay:10.37,2013-02-12 22:27:00,
2013-02-12 17:32:00,32.0,21.9,29.95,SW,222,3.0,9.0,66,0.00,OVC,OVC,0.00,0.0,WeatherDisplay:10.37,2013-02-12 22:32:00,
2013-02-12 17:42:00,32.0,21.9,29.95,SW,216,3.0,7.0,66,0.00,OVC,OVC,0.00,0.0,WeatherDisplay:10.37,2013-02-12 22:42:00,
2013-02-12 17:47:00,31.9,22.2,29.96,SW,226,2.0,8.0,67,0.00,OVC,OVC,0.00,0.0,WeatherDisplay:10.37,2013-02-12 22:47:00,
2013-02-12 17:52:00,31.9,22.2,29.96,SW,230,2.0,7.0,67,0.00,OVC,OVC,0.00,0.0,WeatherDisplay:10.37,2013-02-12 22:52:00,
2013-02-12 17:57:00,31.9,22.5,29.96,SSW,207,2.0,13.0,68,0.00,OVC,OVC,0.00,0.0,WeatherDisplay:10.37,2013-02-12 22:57:00,
2013-02-12 18:07:00,31.7,22.7,29.97,SSW,204,3.0,8.0,69,0.00,OVC,OVC,0.00,0.0,WeatherDisplay:10.37,2013-02-12 23:07:00,
2013-02-12 18:12:00,31.6,23.0,29.97,SSW,209,1.0,7.0,70,0.00,OVC,OVC,0.00,0.0,WeatherDisplay:10.37,2013-02-12 23:12:00,
2013-02-12 18:17:00,31.6,22.9,29.97,SSW,194,3.0,10.0,70,0.00,OVC,OVC,0.00,0.0,WeatherDisplay:10.37,2013-02-12 23:17:00,
2013-02-12 18:22:00,31.5,22.8,29.97,SSW,193,5.0,12.0,70,0.00,OVC,OVC,0.00,0.0,WeatherDisplay:10.37,2013-02-12 23:22:00,
2013-02-12 18:27:00,31.5,22.8,29.97,SSW,202,2.0,7.0,70,0.00,OVC,OVC,0.00,0.0,WeatherDisplay:10.37,2013-02-12 23:27:00,
2013-02-12 18:32:00,31.5,22.8,29.97,SSW,201,3.0,10.0,70,0.00,OVC,OVC,0.00,0.0,WeatherDisplay:10.37,2013-02-12 23:32:00,
2013-02-12 18:40:00,31.5,22.8,29.97,South,189,6.0,10.0,70,0.00,OVC,OVC,0.00,0.0,WeatherDisplay:10.37,2013-02-12 23:40:00,
2013-02-12 18:45:00,31.5,22.8,29.97,South,186,5.0,8.0,70,0.00,OVC,OVC,0.00,0.0,WeatherDisplay:10.37,2013-02-12 23:45:00,
2013-02-12 18:50:00,31.4,22.7,29.98,SSW,196,2.0,8.0,70,0.00,OVC,OVC,0.00,0.0,WeatherDisplay:10.37,2013-02-12 23:50:00,
2013-02-12 18:55:00,31.3,22.6,29.98,SSW,193,5.0,9.0,70,0.00,OVC,OVC,0.00,0.0,WeatherDisplay:10.37,2013-02-12 23:55:00,
2013-02-12 19:00:00,31.3,22.6,29.98,South,190,3.0,7.0,70,0.00,OVC,OVC,0.00,0.0,WeatherDisplay:10.37,2013-02-13 00:00:00,
2013-02-12 19:05:00,31.3,22.6,29.97,SSW,195,2.0,7.0,70,0.00,OVC,OVC,0.00,0.0,WeatherDisplay:10.37,2013-02-13 00:05:00,
2013-02-12 19:10:00,31.3,23.0,29.97,SSW,194,1.0,7.0,71,0.00,OVC,OVC,0.00,0.0,WeatherDisplay:10.37,2013-02-13 00:10:00,
2013-02-12 19:15:00,31.3,23.0,29.97,SSW,194,1.0,7.0,71,0.00,OVC,OVC,0.00,0.0,WeatherDisplay:10.37,2013-02-13 00:15:00,
2013-02-12 19:20:00,31.3,23.0,29.98,SSW,198,0.0,7.0,71,0.00,OVC,OVC,0.00,0.0,WeatherDisplay:10.37,2013-02-13 00:20:00,
2013-02-12 19:25:00,31.3,22.6,29.98,SSW,198,3.0,7.0,70,0.00,OVC,OVC,0.00,0.0,WeatherDisplay:10.37,2013-02-13 00:25:00,
2013-02-12 19:30:00,31.3,22.6,29.98,SW,214,5.0,10.0,70,0.00,OVC,OVC,0.00,0.0,WeatherDisplay:10.37,2013-02-13 00:30:00,
2013-02-12 19:37:00,31.3,22.6,29.98,SSW,213,3.0,7.0,70,0.00,OVC,OVC,0.00,0.0,WeatherDisplay:10.37,2013-02-13 00:37:00,
2013-02-12 19:42:00,31.3,22.6,29.98,SW,214,2.0,7.0,70,0.00,OVC,OVC,0.00,0.0,WeatherDisplay:10.37,2013-02-13 00:42:00,
2013-02-12 19:47:00,31.3,22.6,29.98,SSW,213,1.0,6.0,70,0.00,OVC,OVC,0.00,0.0,WeatherDisplay:10.37,2013-02-13 00:47:00,
2013-02-12 19:52:00,31.3,22.6,29.98,SSW,196,2.0,5.0,70,0.00,OVC,OVC,0.00,0.0,WeatherDisplay:10.37,2013-02-13 00:52:00,
2013-02-12 19:57:00,31.2,22.5,29.98,South,188,2.0,5.0,70,0.00,OVC,OVC,0.00,0.0,WeatherDisplay:10.37,2013-02-13 00:57:00,
2013-02-12 20:02:00,31.2,22.5,29.98,South,188,1.0,6.0,70,0.00,OVC,OVC,0.00,0.0,WeatherDisplay:10.37,2013-02-13 01:02:00,
2013-02-12 20:07:00,31.2,21.9,29.98,SSW,201,5.0,12.0,68,0.00,OVC,OVC,0.00,0.0,WeatherDisplay:10.37,2013-02-13 01:07:00,
2013-02-12 20:12:00,31.3,22.0,29.98,SSW,207,1.0,7.0,68,0.00,OVC,OVC,0.00,0.0,WeatherDisplay:10.37,2013-02-13 01:12:00,
2013-02-12 20:17:00,31.3,21.3,29.98,SSW,212,3.0,12.0,66,0.00,OVC,OVC,0.00,0.0,WeatherDisplay:10.37,2013-02-13 01:17:00,
2013-02-12 20:22:00,31.3,21.3,29.98,SSW,202,5.0,12.0,66,0.00,OVC,OVC,0.00,0.0,WeatherDisplay:10.37,2013-02-13 01:22:00,
2013-02-12 20:27:00,31.3,21.3,29.98,SSW,206,7.0,12.0,66,0.00,OVC,OVC,0.00,0.0,WeatherDisplay:10.37,2013-02-13 01:27:00,
2013-02-12 20:32:00,31.3,22.0,29.98,SW,217,5.0,12.0,68,0.00,OVC,OVC,0.00,0.0,WeatherDisplay:10.37,2013-02-13 01:32:00,
2013-02-12 20:42:00,31.2,21.5,29.98,SW,227,3.0,9.0,67,0.00,OVC,OVC,0.00,0.0,WeatherDisplay:10.37,2013-02-13 01:42:00,
2013-02-12 20:47:00,31.2,21.9,29.97,SW,232,2.0,9.0,68,0.00,OVC,OVC,0.00,0.0,WeatherDisplay:10.37,2013-02-13 01:47:00,
2013-02-12 20:52:00,31.0,21.7,29.97,SW,233,2.0,7.0,68,0.00,OVC,OVC,0.00,0.0,WeatherDisplay:10.37,2013-02-13 01:52:00,
2013-02-12 20:57:00,31.0,22.0,29.97,SW,227,3.0,6.0,69,0.00,OVC,OVC,0.00,0.0,WeatherDisplay:10.37,2013-02-13 01:57:00,
2013-02-12 21:02:00,31.0,22.0,29.97,SW,227,1.0,4.0,69,0.00,OVC,OVC,0.00,0.0,WeatherDisplay:10.37,2013-02-13 02:02:00,
2013-02-12 21:07:00,30.9,21.9,29.97,SW,227,2.0,4.0,69,0.00,OVC,OVC,0.00,0.0,WeatherDisplay:10.37,2013-02-13 02:07:00,
2013-02-12 21:12:00,30.9,22.3,29.97,SW,227,2.0,4.0,70,0.00,OVC,OVC,0.00,0.0,WeatherDisplay:10.37,2013-02-13 02:12:00,
2013-02-12 21:17:00,30.9,22.3,29.96,SW,227,1.0,4.0,70,0.00,OVC,OVC,0.00,0.0,WeatherDisplay:10.37,2013-02-13 02:17:00,
2013-02-12 21:22:00,30.9,22.3,29.96,SW,227,1.0,4.0,70,0.00,OVC,OVC,0.00,0.0,WeatherDisplay:10.37,2013-02-13 02:22:00,
2013-02-12 21:27:00,30.9,22.3,29.96,SW,227,0.0,2.0,70,0.00,OVC,OVC,0.00,0.0,WeatherDisplay:10.37,2013-02-13 02:27:00,
2013-02-12 21:32:00,30.9,22.3,29.96,SW,227,1.0,3.0,70,0.00,OVC,OVC,0.00,0.0,WeatherDisplay:10.37,2013-02-13 02:32:00,
2013-02-12 21:42:00,30.9,22.6,29.96,SW,227,0.0,3.0,71,0.00,OVC,OVC,0.00,0.0,WeatherDisplay:10.37,2013-02-13 02:42:00,
2013-02-12 21:47:00,30.9,22.6,29.95,SW,227,0.0,1.0,71,0.00,OVC,OVC,0.00,0.0,WeatherDisplay:10.37,2013-02-13 02:47:00,
2013-02-12 21:52:00,30.9,22.6,29.95,SW,227,0.0,1.0,71,0.00,OVC,OVC,0.00,0.0,WeatherDisplay:10.37,2013-02-13 02:52:00,
2013-02-12 21:57:00,30.9,22.9,29.95,SW,227,0.0,0.0,72,0.00,OVC,OVC,0.00,0.0,WeatherDisplay:10.37,2013-02-13 02:57:00,
2013-02-12 22:02:00,30.9,22.9,29.94,SW,227,0.0,0.0,72,0.00,OVC,OVC,0.00,0.0,WeatherDisplay:10.37,2013-02-13 03:02:00,
2013-02-12 22:07:00,30.9,22.9,29.94,SW,227,1.0,3.0,72,0.00,OVC,OVC,0.00,0.0,WeatherDisplay:10.37,2013-02-13 03:07:00,
2013-02-12 22:12:00,30.9,22.9,29.94,SW,227,0.0,0.0,72,0.00,OVC,OVC,0.00,0.0,WeatherDisplay:10.37,2013-02-13 03:12:00,
2013-02-12 22:17:00,30.9,22.9,29.94,SW,227,0.0,2.0,72,0.00,OVC,OVC,0.00,0.0,WeatherDisplay:10.37,2013-02-13 03:17:00,
2013-02-12 22:22:00,30.9,22.9,29.94,SW,227,1.0,4.0,72,0.00,OVC,OVC,0.00,0.0,WeatherDisplay:10.37,2013-02-13 03:22:00,
2013-02-12 22:27:00,30.9,23.3,29.94,SW,227,0.0,3.0,73,0.00,OVC,OVC,0.00,0.0,WeatherDisplay:10.37,2013-02-13 03:27:00,
2013-02-12 22:32:00,30.9,23.3,29.94,SW,227,2.0,4.0,73,0.00,OVC,OVC,0.00,0.0,WeatherDisplay:10.37,2013-02-13 03:32:00,
2013-02-12 22:37:00,30.8,23.5,29.94,SW,227,1.0,4.0,74,0.00,OVC,OVC,0.00,0.0,WeatherDisplay:10.37,2013-02-13 03:37:00,
2013-02-12 22:42:00,30.7,23.7,29.94,SW,227,0.0,3.0,75,0.00,OVC,OVC,0.00,0.0,WeatherDisplay:10.37,2013-02-13 03:42:00,
2013-02-12 22:47:00,30.7,23.7,29.94,SW,227,1.0,5.0,75,0.00,OVC,OVC,0.00,0.0,WeatherDisplay:10.37,2013-02-13 03:47:00,
2013-02-12 22:52:00,30.7,23.7,29.94,SW,227,1.0,5.0,75,0.00,OVC,OVC,0.00,0.0,WeatherDisplay:10.37,2013-02-13 03:52:00,
2013-02-12 22:57:00,30.7,24.0,29.94,SW,227,1.0,5.0,76,0.00,OVC,OVC,0.00,0.0,WeatherDisplay:10.37,2013-02-13 03:57:00,
2013-02-12 23:02:00,30.7,24.0,29.93,SW,227,1.0,5.0,76,0.00,OVC,OVC,0.00,0.0,WeatherDisplay:10.37,2013-02-13 04:02:00,
2013-02-12 23:12:00,30.7,24.0,29.93,SW,227,1.0,4.0,76,0.00,OVC,OVC,0.00,0.0,WeatherDisplay:10.37,2013-02-13 04:12:00,
2013-02-12 23:22:00,30.7,24.0,29.92,SW,227,1.0,4.0,76,0.00,OVC,OVC,0.00,0.0,WeatherDisplay:10.37,2013-02-13 04:22:00,
2013-02-12 23:27:00,30.7,24.0,29.92,SW,227,2.0,5.0,76,0.00,OVC,OVC,0.00,0.0,WeatherDisplay:10.37,2013-02-13 04:27:00,
2013-02-12 23:32:00,30.7,24.0,29.92,SW,227,1.0,4.0,76,0.00,OVC,OVC,0.00,0.0,WeatherDisplay:10.37,2013-02-13 04:32:00,
2013-02-12 23:37:00,30.7,24.0,29.92,SW,227,1.0,4.0,76,0.00,OVC,OVC,0.00,0.0,WeatherDisplay:10.37,2013-02-13 04:37:00,
2013-02-12 23:42:00,30.7,24.0,29.92,SW,227,0.0,1.0,76,0.00,OVC,OVC,0.00,0.0,WeatherDisplay:10.37,2013-02-13 04:42:00,
2013-02-12 23:47:00,30.7,24.0,29.91,SW,227,1.0,5.0,76,0.00,OVC,OVC,0.00,0.0,WeatherDisplay:10.37,2013-02-13 04:47:00,
2013-02-12 23:52:00,30.7,23.7,29.91,SW,227,2.0,4.0,75,0.00,OVC,OVC,0.00,0.0,WeatherDisplay:10.37,2013-02-13 04:52:00,
2013-02-12 23:57:00,30.7,24.0,29.91,SW,227,3.0,6.0,76,0.00,OVC,OVC,0.00,0.0,WeatherDisplay:10.37,2013-02-13 04:57:00,